Location: Lansingburgh
(42.7845°N, 73.6696°W)
Time: 03:19:49
(UTC+00:00)

H-2A ROCKET BODY - Pass Details

Date: 24 January 2020
Orbit: 242 x 15398 km, 28.6° (Epoch: 16 February)

Event Time Altitude Azimuth Distance (km) Brightness Sun altitude
Rises 21:55:38 0° 259° (W) 11,503 10.0 -0.6°
Reaches altitude 10° 22:08:56 10° 253° (WSW) 7,421 9.0 -2.9°
Maximum altitude 22:23:31 30° 202° (SSW) 2,328 5.0 -5.3°
Drops below altitude 10° 22:28:07 10° 140° (SE) 2,261 4.3 -6.1°
Sets 22:29:47 0° 127° (SE) 2,744 4.6 -6.4°
